Location: *
(37.9500°N, 27.3666°E)
Time: 14:16:27
(UTC+00:00)

NOSS 2-2 (E) - Pass Details

Date: 24 October 2021
Orbit: 448 x 1756 km, 63.3° (Epoch: 27 November)

Event Time Altitude Azimuth Distance (km) Brightness Sun altitude
Rises 16:56:49 0° 202° (SSW) 2,561 7.0 -19.5°
Reaches altitude 10° 16:59:02 10° 198° (SSW) 1,613 5.9 -20.0°
Enters shadow 17:01:24 37° 175° (S) 711 3.8 -20.4°
